Overview Statistics Trail Chart Weather Telemetry Raw packets
 

This is the latest recevied weather packets stored in our database for station/object IZ7EXI-13. If no packets are shown the sender has not sent any weather packets the latest 10 day(s).

<< 34 35 36 37 38 39 40 >>
Time Temp. Humidity Pressure Rain* Wind** Luminosity Snow
1788014994 40.56° C 13% 1014.8 hPa - - - -
1788014094 40.56° C 13% 1014.9 hPa - - - -
1788013230 40.56° C 12% 1015 hPa - - - -
1788013194 40.56° C 12% 1015 hPa - - - -
1788012329 41.11° C 11% 1014.9 hPa - - - -
1788012294 41.11° C 11% 1014.9 hPa - - - -
1788011427 40.56° C 12% 1014.7 hPa - - - -
1788011393 40.56° C 12% 1014.7 hPa - - - -
1788010493 40° C 13% 1015.1 hPa - - - -
1788009624 39.44° C 13% 1015.2 hPa - - - -
1788009593 39.44° C 13% 1015.2 hPa - - - -
1788008727 39.44° C 14% 1015.4 hPa - - - -
1788008693 39.44° C 14% 1015.4 hPa - - - -
1788007793 38.89° C 15% 1015.7 hPa - - - -
1788006892 39.44° C 14% 1015.8 hPa - - - -
1788006024 40° C 13% 1016 hPa - - - -
1788005992 40° C 13% 1016 hPa - - - -
1788005125 40.56° C 11% 1016 hPa - - - -
1788005092 40.56° C 11% 1016 hPa - - - -
1788004192 41.67° C 11% 1016 hPa - - - -
1788003291 41.11° C 12% 1016.2 hPa - - - -
1788002391 41.67° C 13% 1016.7 hPa - - - -
1788001524 41.11° C 14% 1016.6 hPa - - - -
1788001491 41.11° C 14% 1016.6 hPa - - - -
1788000591 40° C 15% 1016.4 hPa - - - -

* Rain since midnight (hover to see other rain measurements)
** Current wind speed in m/s (hover to see current wind gust speed)